Date String (YYYY-MM-DD hh:mm:ss) UTC,Instrument flags,Ambient pressure (hPa),Sample flow (lpm),Bypass flow (lpm),Sample temperature (°C),Ambient temperature (°C),ASC tube jacket temperature (°C),LED temperature (°C),Box temperature (°C),Sample RH (%),Span deviation,Mass concentration (μg/m³),Mass concentration (μg/m³),Mass concentration (μg/m³)
DateTimeUTC,F1_M11,P_M11,Q1_M11,Q2_M11,T1_M11,T2_M11,T3_M11,T4_M11,T5_M11,U1_M11,ZSPAN_M11,X2_M11,X0_M11,X1_M11
2023-02-07 10:00:00,,0827.2,5.05,0.00,22.1,21.7,00.0,30.8,24.0,07.6,0000.0,0000.85,0001.19,0000.72
2023-02-07 10:01:00,,0827.2,5.01,0.00,22.1,21.3,00.0,30.8,23.9,07.7,0000.0,0000.90,0001.28,0000.74
2023-02-07 10:02:00,,0827.3,5.00,0.00,22.1,21.1,00.0,30.8,23.9,07.5,0000.0,0000.95,0001.40,0000.75
2023-02-07 10:03:00,,0827.2,5.00,0.00,22.1,20.9,00.0,30.8,23.8,07.5,0000.0,0001.00,0001.56,0000.76
2023-02-07 10:04:00,,0827.3,4.99,0.00,22.1,20.8,00.0,30.9,23.8,07.8,0000.0,0001.00,0001.54,0000.77
2023-02-07 10:05:00,,0827.3,5.02,0.00,22.0,20.7,00.0,30.9,23.8,08.0,0000.0,0000.96,0001.45,0000.76
2023-02-07 10:06:00,,0827.3,5.00,0.00,22.0,20.6,00.0,30.9,23.7,07.8,0000.0,0000.99,0001.52,0000.76
2023-02-07 10:07:00,,0827.3,5.01,0.00,22.0,20.6,00.0,30.9,23.7,07.7,0000.0,0000.99,0001.55,0000.76
2023-02-07 10:08:00,,0827.3,5.00,0.00,22.0,20.5,00.0,30.9,23.7,07.6,0000.0,0000.99,0001.57,0000.76
2023-02-07 10:09:00,,0827.3,4.98,0.00,22.0,20.5,00.0,30.9,23.7,07.6,0000.0,0001.02,0001.66,0000.77
2023-02-07 10:10:00,,0827.3,5.00,0.00,22.0,20.4,00.0,30.9,23.6,07.6,0000.0,0001.07,0001.86,0000.76
2023-02-07 10:11:00,,0827.3,5.00,0.00,21.9,20.4,00.0,30.8,23.6,07.8,0000.0,0001.07,0001.88,0000.75
2023-02-07 10:12:00,,0827.3,5.00,0.00,21.9,20.3,00.0,30.8,23.6,08.3,0000.0,0001.04,0001.84,0000.74
2023-02-07 10:13:00,,0827.4,4.98,0.00,21.9,20.7,00.0,30.8,23.7,08.2,0000.0,0000.99,0001.73,0000.74
2023-02-07 10:14:00,,0827.4,5.00,0.00,22.0,21.8,00.0,30.8,23.9,08.2,0000.0,0000.94,0001.58,0000.73
2023-02-07 10:15:00,,0827.4,5.01,0.00,22.2,22.7,00.0,30.8,24.2,08.2,0000.0,0000.95,0001.59,0000.73
2023-02-07 10:16:00,,0827.3,5.00,0.00,22.2,22.6,00.0,30.9,24.3,08.1,0000.0,0001.00,0001.72,0000.77
2023-02-07 10:17:00,,0827.3,4.99,0.00,22.3,22.2,00.0,30.9,24.2,08.0,0000.0,0001.02,0001.74,0000.81
2023-02-07 10:18:00,,0827.3,5.02,0.00,22.3,21.8,00.0,30.9,24.1,07.8,0000.0,0001.06,0001.81,0000.83
2023-02-07 10:19:00,,0827.3,5.01,0.00,22.3,21.5,00.0,31.0,24.1,07.8,0000.0,0001.12,0001.91,0000.86
2023-02-07 10:20:00,,0827.3,5.00,0.00,22.3,21.3,00.0,31.0,24.1,07.9,0000.0,0001.16,0001.95,0000.88
2023-02-07 10:21:00,,0827.3,5.00,0.00,22.2,21.1,00.0,31.0,24.0,07.8,0000.0,0001.12,0001.77,0000.90
2023-02-07 10:22:00,,0827.3,5.01,0.00,22.2,21.0,00.0,31.0,24.0,07.8,0000.0,0001.14,0001.82,0000.92
2023-02-07 10:23:00,,0827.3,5.02,0.00,22.2,20.9,00.0,31.0,24.0,07.8,0000.0,0001.20,0002.45,0000.95
2023-02-07 10:24:00,,0827.3,4.98,0.00,22.2,20.9,00.0,31.0,24.0,07.8,0000.0,0001.27,0003.48,0000.99
2023-02-07 10:25:00,,0827.4,4.99,0.00,22.2,20.9,00.0,31.0,23.9,07.7,0000.0,0001.31,0003.55,0001.01
2023-02-07 10:26:00,,0827.4,5.01,0.00,22.2,20.9,00.0,31.0,23.9,07.7,0000.0,0001.35,0003.84,0001.02
2023-02-07 10:27:00,,0827.3,5.00,0.00,22.2,20.8,00.0,31.0,23.9,07.7,0000.0,0001.33,0003.93,0001.01
2023-02-07 10:28:00,,0827.3,5.02,0.00,22.2,20.8,00.0,31.0,23.9,07.7,0000.0,0001.30,0003.84,0000.99
2023-02-07 10:29:00,,0827.3,5.00,0.00,22.1,20.8,00.0,31.0,23.9,07.7,0000.0,0001.28,0003.78,0000.99
2023-02-07 10:30:00,,0827.2,4.98,0.00,22.1,20.8,00.0,31.0,23.9,07.8,0000.0,0001.23,0004.10,0000.98
2023-02-07 10:31:00,,0827.3,4.98,0.00,22.1,20.8,00.0,31.0,23.9,07.7,0000.0,0001.18,0004.28,0000.97
2023-02-07 10:32:00,,0827.4,5.00,0.00,22.1,20.8,00.0,31.0,23.9,07.8,0000.0,0001.17,0004.24,0000.97
2023-02-07 10:33:00,,0827.4,5.00,0.00,22.1,20.8,00.0,31.0,23.9,07.9,0000.0,0001.17,0004.20,0000.96
2023-02-07 10:34:00,,0827.4,4.99,0.00,22.2,21.3,00.0,31.0,24.0,07.8,0000.0,0001.13,0003.61,0000.94
2023-02-07 10:35:00,,0827.4,5.02,0.00,22.3,22.3,00.0,31.0,24.2,07.6,0000.0,0001.09,0002.69,0000.91
2023-02-07 10:36:00,,0827.4,5.00,0.00,22.4,23.0,00.0,31.0,24.5,07.6,0000.0,0001.10,0002.74,0000.89
2023-02-07 10:37:00,,0827.4,4.98,0.00,22.5,22.8,00.0,31.1,24.5,07.6,0000.0,0001.06,0002.45,0000.87
2023-02-07 10:38:00,,0827.4,5.00,0.00,22.5,22.4,00.0,31.1,24.4,07.5,0000.0,0001.06,0002.30,0000.87
2023-02-07 10:39:00,,0827.4,5.01,0.00,22.5,22.1,00.0,31.1,24.4,07.6,0000.0,0001.08,0002.93,0000.86
2023-02-07 10:40:00,,0827.4,5.00,0.00,22.5,21.8,00.0,31.2,24.3,07.6,0000.0,0001.07,0002.94,0000.85
2023-02-07 10:41:00,,0827.4,5.00,0.00,22.5,21.6,00.0,31.2,24.3,07.6,0000.0,0001.11,0002.61,0000.84
2023-02-07 10:42:00,,0827.4,4.99,0.00,22.5,21.5,00.0,31.2,24.3,07.6,0000.0,0001.11,0002.37,0000.83
2023-02-07 10:43:00,,0827.5,4.99,0.00,22.5,21.4,00.0,31.2,24.3,07.5,0000.0,0001.12,0003.40,0000.82
2023-02-07 10:44:00,,0827.5,5.00,0.00,22.5,21.3,00.0,31.2,24.2,07.6,0000.0,0001.11,0003.46,0000.81
2023-02-07 10:45:00,,0827.5,4.99,0.00,22.5,21.2,00.0,31.2,24.2,07.6,0000.0,0001.12,0003.48,0000.80
2023-02-07 10:46:00,,0827.5,4.99,0.00,22.4,21.1,00.0,31.2,24.2,07.6,0000.0,0001.10,0003.38,0000.80
2023-02-07 10:47:00,,0827.5,5.00,0.00,22.4,21.0,00.0,31.3,24.2,07.6,0000.0,0001.09,0003.34,0000.80
2023-02-07 10:48:00,,0827.5,4.99,0.00,22.4,21.0,00.0,31.3,24.2,07.6,0000.0,0001.09,0003.41,0000.80
2023-02-07 10:49:00,,0827.5,4.98,0.00,22.4,21.1,00.0,31.3,24.1,07.6,0000.0,0001.09,0003.45,0000.80
2023-02-07 10:50:00,,0827.5,5.00,0.00,22.4,21.0,00.0,31.3,24.1,07.6,0000.0,0001.09,0002.99,0000.80
2023-02-07 10:51:00,,0827.5,5.01,0.00,22.4,21.0,00.0,31.3,24.1,07.6,0000.0,0001.08,0002.85,0000.80
2023-02-07 10:52:00,,0827.5,5.00,0.00,22.4,21.0,00.0,31.3,24.1,07.7,0000.0,0001.07,0002.81,0000.79
2023-02-07 10:53:00,,0827.5,5.00,0.00,22.4,20.9,00.0,31.2,24.1,07.7,0000.0,0001.11,0003.23,0000.78
2023-02-07 10:54:00,,0827.5,5.00,0.00,22.4,20.9,00.0,31.2,24.1,07.6,0000.0,0001.11,0002.83,0000.77
2023-02-07 10:55:00,,0827.5,5.01,0.00,22.3,20.9,00.0,31.2,24.0,07.7,0000.0,0001.14,0002.78,0000.77
2023-02-07 10:56:00,,0827.5,5.01,0.00,22.3,20.9,00.0,31.2,24.0,07.7,0000.0,0001.13,0002.78,0000.77
2023-02-07 10:57:00,,0827.5,5.00,0.00,22.3,21.0,00.0,31.2,24.0,07.7,0000.0,0001.14,0002.80,0000.77
2023-02-07 10:58:00,,0827.5,5.01,0.00,22.3,21.0,00.0,31.2,24.0,07.7,0000.0,0001.12,0002.75,0000.77
2023-02-07 10:59:00,,0827.5,5.00,0.00,22.3,21.0,00.0,31.2,24.0,07.7,0000.0,0001.08,0002.99,0000.77
